When you browse on this site, cookies collect data to enhance your experience and personalize the content and advertising you see.
Visit our Privacy Policy to learn more. By continuing to use the site, you agree to this use of cookies and data.
  • In Schweiz
  • Länderverzeichnis
  • Für 7 Tage
  • Wassertemperatur
  • Wetterkarte
  • Widgets
  • user-avatar
    Anmelden

    Stündliche Wetter Richmond

    Heute, 8 Dezember, Sonntag

    Zeit Temperatur Niederschläge Wind Luftdruck Luftfeuchtigkeit
    00:00 +2°C° 0 mm 1 m/S 770 mmHg 74%
    01:00 0°C° 0 mm 0 m/S 770 mmHg 76%
    02:00 0°C° 0 mm 0 m/S 770 mmHg 77%
    03:00 0°C° 0 mm 0 m/S 770 mmHg 77%
    04:00 +1°C° 0 mm 1 m/S 770 mmHg 78%
    05:00 0°C° 0 mm 0 m/S 771 mmHg 77%
    06:00 0°C° 0 mm 0 m/S 771 mmHg 76%
    07:00 0°C° 0 mm 0 m/S 771 mmHg 75%
    08:00 +2°C° 0 mm 0 m/S 771 mmHg 67%
    09:00 +4°C° 0 mm 0 m/S 771 mmHg 60%
    10:00 +7°C° 0 mm 1 m/S 771 mmHg 52%
    11:00 +8°C° 0 mm 1 m/S 770 mmHg 51%
    12:00 +9°C° 0 mm 1 m/S 770 mmHg 51%
    13:00 +9°C° 0 mm 2 m/S 769 mmHg 50%
    14:00 +9°C° 0 mm 2 m/S 768 mmHg 54%
    15:00 +9°C° 0 mm 1 m/S 768 mmHg 59%
    16:00 +9°C° 0 mm 1 m/S 767 mmHg 63%
    17:00 +8°C° 0 mm 1 m/S 767 mmHg 68%
    18:00 +7°C° 0 mm 1 m/S 767 mmHg 73%
    19:00 +5°C° 0 mm 0 m/S 767 mmHg 78%
    20:00 +5°C° 0 mm 0 m/S 767 mmHg 79%
    21:00 +5°C° 0 mm 0 m/S 767 mmHg 80%
    22:00 +5°C° 0 mm 0 m/S 766 mmHg 80%
    23:00 +5°C° 0.1 mm 0 m/S 766 mmHg 81%

    Morgen, 9 Dezember, Montag

    Zeit Temperatur Niederschläge Wind Luftdruck Luftfeuchtigkeit
    00:00 +6°C° 0.1 mm 0 m/S 766 mmHg 82%
    01:00 +6°C° 0.1 mm 0 m/S 765 mmHg 83%
    02:00 +6°C° 0.8 mm 0 m/S 765 mmHg 87%
    03:00 +7°C° 0.8 mm 1 m/S 764 mmHg 91%
    04:00 +8°C° 0.8 mm 1 m/S 763 mmHg 95%
    05:00 +8°C° 0.2 mm 1 m/S 763 mmHg 96%
    06:00 +9°C° 0.2 mm 1 m/S 762 mmHg 97%
    07:00 +8°C° 0.2 mm 2 m/S 762 mmHg 98%
    08:00 +9°C° 0.1 mm 2 m/S 761 mmHg 98%
    09:00 +10°C° 0.1 mm 1 m/S 761 mmHg 97%
    10:00 +11°C° 0.1 mm 1 m/S 761 mmHg 96%
    11:00 +12°C° 0 mm 2 m/S 760 mmHg 94%
    12:00 +13°C° 0 mm 2 m/S 759 mmHg 92%
    13:00 +14°C° 0 mm 2 m/S 758 mmHg 90%
    14:00 +14°C° 0 mm 2 m/S 757 mmHg 91%
    15:00 +14°C° 0 mm 3 m/S 756 mmHg 91%
    16:00 +14°C° 0 mm 3 m/S 756 mmHg 92%
    17:00 +15°C° 0 mm 4 m/S 755 mmHg 91%
    18:00 +15°C° 0 mm 4 m/S 755 mmHg 90%
    19:00 +15°C° 0 mm 5 m/S 755 mmHg 89%
    20:00 +16°C° 0 mm 5 m/S 755 mmHg 88%
    21:00 +16°C° 0 mm 5 m/S 755 mmHg 86%
    22:00 +16°C° 0 mm 5 m/S 755 mmHg 84%
    23:00 +16°C° 0 mm 5 m/S 755 mmHg 85%

    übermorgen, 10 Dezember, Dienstag

    Zeit Temperatur Niederschläge Wind Luftdruck Luftfeuchtigkeit
    00:00 +17°C° 0 mm 5 m/S 755 mmHg 85%
    01:00 +17°C° 0 mm 5 m/S 755 mmHg 85%
    02:00 +17°C° 0 mm 5 m/S 755 mmHg 86%
    03:00 +17°C° 0 mm 5 m/S 755 mmHg 87%
    04:00 +18°C° 0 mm 4 m/S 755 mmHg 88%
    05:00 +17°C° 0 mm 4 m/S 755 mmHg 89%
    06:00 +17°C° 0 mm 4 m/S 756 mmHg 89%
    07:00 +17°C° 0 mm 4 m/S 756 mmHg 89%
    08:00 +18°C° 0 mm 4 m/S 756 mmHg 86%
    09:00 +19°C° 0 mm 4 m/S 757 mmHg 82%
    10:00 +19°C° 0 mm 4 m/S 757 mmHg 78%
    11:00 +20°C° 0 mm 4 m/S 757 mmHg 75%
    12:00 +21°C° 0 mm 4 m/S 757 mmHg 73%
    13:00 +21°C° 0 mm 4 m/S 757 mmHg 70%
    14:00 +21°C° 0 mm 3 m/S 757 mmHg 73%
    15:00 +20°C° 0 mm 3 m/S 757 mmHg 76%
    16:00 +20°C° 0 mm 2 m/S 757 mmHg 79%
    17:00 +18°C° 0.5 mm 2 m/S 757 mmHg 81%
    18:00 +17°C° 0.5 mm 3 m/S 757 mmHg 83%
    19:00 +14°C° 0.5 mm 3 m/S 758 mmHg 85%
    20:00 +13°C° 1.2 mm 4 m/S 759 mmHg 87%
    21:00 +12°C° 1.2 mm 4 m/S 759 mmHg 88%
    22:00 +10°C° 1.2 mm 4 m/S 760 mmHg 90%
    23:00 +8°C° 1.4 mm 4 m/S 760 mmHg 90%

    11 Dezember, Mittwoch

    Zeit Temperatur Niederschläge Wind Luftdruck Luftfeuchtigkeit
    00:00 +7°C° 1.4 mm 4 m/S 761 mmHg 89%
    01:00 +6°C° 1.4 mm 4 m/S 762 mmHg 89%
    02:00 +5°C° 1.3 mm 4 m/S 762 mmHg 89%
    03:00 +4°C° 1.3 mm 3 m/S 763 mmHg 89%
    04:00 +4°C° 1.3 mm 3 m/S 763 mmHg 89%
    05:00 +3°C° 1.2 mm 3 m/S 764 mmHg 90%
    06:00 +3°C° 1.2 mm 3 m/S 765 mmHg 91%
    07:00 +3°C° 1.2 mm 3 m/S 765 mmHg 91%
    08:00 +4°C° 0.2 mm 2 m/S 766 mmHg 88%
    09:00 +4°C° 0.2 mm 2 m/S 766 mmHg 85%
    10:00 +6°C° 0.2 mm 1 m/S 767 mmHg 82%
    11:00 +7°C° 0 mm 1 m/S 767 mmHg 77%
    12:00 +8°C° 0 mm 1 m/S 767 mmHg 73%
    13:00 +8°C° 0 mm 1 m/S 767 mmHg 68%
    14:00 +8°C° 0 mm 1 m/S 767 mmHg 69%
    15:00 +8°C° 0 mm 1 m/S 767 mmHg 69%
    16:00 +8°C° 0 mm 1 m/S 768 mmHg 70%
    17:00 +7°C° 0 mm 1 m/S 768 mmHg 73%
    18:00 +7°C° 0 mm 1 m/S 769 mmHg 76%
    19:00 +6°C° 0 mm 1 m/S 770 mmHg 79%
    20:00 +6°C° 0 mm 1 m/S 770 mmHg 79%
    21:00 +4°C° 0 mm 2 m/S 771 mmHg 78%
    22:00 +4°C° 0 mm 2 m/S 771 mmHg 78%
    23:00 +2°C° 0 mm 3 m/S 771 mmHg 72%

    12 Dezember, Donnerstag

    Zeit Temperatur Niederschläge Wind Luftdruck Luftfeuchtigkeit
    00:00 +1°C° 0 mm 3 m/S 771 mmHg 66%
    01:00 +1°C° 0 mm 3 m/S 771 mmHg 60%
    02:00 0°C° 0 mm 4 m/S 772 mmHg 57%
    03:00 -1°C° 0 mm 4 m/S 772 mmHg 55%
    04:00 -1°C° 0 mm 4 m/S 772 mmHg 52%
    05:00 -1°C° 0.1 mm 4 m/S 773 mmHg 51%
    06:00 -2°C° 0.1 mm 4 m/S 774 mmHg 50%
    07:00 -2°C° 0.1 mm 4 m/S 774 mmHg 49%
    08:00 -2°C° 0.2 mm 4 m/S 775 mmHg 56%
    09:00 -2°C° 0.2 mm 4 m/S 776 mmHg 62%
    10:00 -2°C° 0.2 mm 4 m/S 776 mmHg 68%
    11:00 -2°C° 0.2 mm 4 m/S 776 mmHg 68%
    12:00 -2°C° 0.2 mm 4 m/S 775 mmHg 68%
    13:00 -1°C° 0.2 mm 4 m/S 775 mmHg 68%
    14:00 -1°C° 0 mm 4 m/S 775 mmHg 67%
    15:00 -1°C° 0 mm 4 m/S 775 mmHg 65%
    16:00 -2°C° 0 mm 4 m/S 775 mmHg 64%
    17:00 -2°C° 0 mm 4 m/S 775 mmHg 67%
    18:00 -2°C° 0 mm 4 m/S 775 mmHg 71%
    19:00 -2°C° 0 mm 4 m/S 775 mmHg 75%
    20:00 -2°C° 0 mm 4 m/S 774 mmHg 75%
    21:00 -1°C° 0 mm 4 m/S 774 mmHg 76%
    22:00 -1°C° 0 mm 5 m/S 774 mmHg 76%
    23:00 -1°C° 0.1 mm 4 m/S 773 mmHg 80%

    13 Dezember, Freitag

    Zeit Temperatur Niederschläge Wind Luftdruck Luftfeuchtigkeit
    00:00 -1°C° 0.1 mm 4 m/S 773 mmHg 83%
    01:00 -1°C° 0.1 mm 4 m/S 772 mmHg 86%
    02:00 -1°C° 0.3 mm 4 m/S 772 mmHg 88%
    03:00 -1°C° 0.3 mm 4 m/S 771 mmHg 90%
    04:00 -1°C° 0.3 mm 4 m/S 771 mmHg 92%
    05:00 -1°C° 0.3 mm 4 m/S 770 mmHg 92%
    06:00 -1°C° 0.3 mm 4 m/S 770 mmHg 92%
    07:00 0°C° 0.3 mm 4 m/S 770 mmHg 93%
    08:00 0°C° 0.4 mm 4 m/S 769 mmHg 93%
    09:00 0°C° 0.4 mm 4 m/S 769 mmHg 93%
    10:00 0°C° 0.4 mm 4 m/S 769 mmHg 94%
    11:00 +1°C° 0.4 mm 4 m/S 768 mmHg 94%
    12:00 +1°C° 0.4 mm 4 m/S 767 mmHg 94%
    13:00 +1°C° 0.4 mm 4 m/S 766 mmHg 94%
    14:00 +3°C° 0.1 mm 4 m/S 765 mmHg 94%
    15:00 +3°C° 0.1 mm 4 m/S 764 mmHg 95%
    16:00 +4°C° 0.1 mm 4 m/S 764 mmHg 95%
    17:00 +4°C° 0 mm 4 m/S 763 mmHg 95%
    18:00 +4°C° 0 mm 3 m/S 763 mmHg 96%
    19:00 +5°C° 0 mm 3 m/S 763 mmHg 96%
    20:00 +5°C° 0 mm 3 m/S 763 mmHg 96%
    21:00 +5°C° 0 mm 3 m/S 762 mmHg 96%
    22:00 +5°C° 0 mm 3 m/S 762 mmHg 96%
    23:00 +7°C° 0.1 mm 3 m/S 761 mmHg 96%
    Mehr zeigen